Miles City, MT

4:23 AM MDT on May 27, 2018 (GMT -0600)
Wiley

Weather History for KMLS - July, 2013

Change the Weather History Date:

Wednesday, July 3, 2013

  Actual Average Record
Temperature  
Mean Temperature 81 °F 71 °F  
Max Temperature 97 °F 85 °F 104 °F (2012)
Min Temperature 65 °F 57 °F 44 °F (1972)
Degree Days  
Heating Degree Days 0 1  
Month to date heating degree days 0 3  
Since 1 June heating degree days 59 92  
Since 1 July heating degree days 0 3  
Cooling Degree Days 16 7  
Month to date cooling degree days 41 21  
Year to date cooling degree days 147 148  
Since 1 June cooling degree days 134 128  
Growing Degree Days 30 (Base 50)    
Moisture  
Dew Point 55 °F    
Average Humidity 47    
Maximum Humidity 69    
Minimum Humidity 24    
Precipitation  
Precipitation 0.00 in 0.06 in 1.23 in (1993)
Month to date precipitation 0.00 0.18  
Year to date precipitation 11.03 7.39  
Sea Level Pressure  
Sea Level Pressure 29.79 in    
Wind  
Wind Speed 8 mph (SE)    
Max Wind Speed 16 mph    
Max Gust Speed 23 mph    
Visibility 10 miles    
Events      
T = Trace of Precipitation, MM = Missing Value Source: NWS Daily Summary

Daily Weather History Graph

Daily Weather History Graph

Search for Another Location

Airport or City:

Astronomy

Jul. 03, 2013 Rise Set
Actual Time 5:16 AM MDT 8:59 PM MDT
Civil Twilight 4:37 AM MDT 9:37 PM MDT
Nautical Twilight 3:45 AM MDT 10:29 PM MDT
Astronomical Twilight 2:33 AM MDT 11:41 PM MDT
Moon 2:03 AM MDT (7/3) 5:06 PM MDT (7/3)
Length of Visible Light 16h 59m
Length of Day
15h 42m
Waning Crescent, 18% of the Moon is Illuminated
Jul 3
Waning Crescent
Jul 8
New
Jul 15
First Quarter
Jul 22
Full
Jul 29
Last Quarter

Hourly Weather History & Observations

Time (MDT) Temp. Heat Index Dew Point Humidity Pressure Visibility Wind Dir Wind Speed Gust Speed Precip Events Conditions
12:53 AM 72.0 °F - 52.0 °F 49% 29.89 in 10.0 mi SSE 10.4 mph - N/A   Clear
1:53 AM 70.0 °F - 51.1 °F 51% 29.88 in 10.0 mi SSE 10.4 mph - N/A   Clear
2:53 AM 68.0 °F - 51.1 °F 55% 29.87 in 10.0 mi SSE 8.1 mph - N/A   Clear
3:53 AM 64.9 °F - 51.1 °F 61% 29.86 in 10.0 mi South 6.9 mph - N/A   Clear
4:53 AM 66.0 °F - 50.0 °F 56% 29.85 in 10.0 mi SSE 9.2 mph - N/A   Clear
5:53 AM 66.0 °F - 48.9 °F 54% 29.85 in 10.0 mi SSE 9.2 mph - N/A   Clear
6:53 AM 69.1 °F - 50.0 °F 51% 29.84 in 10.0 mi SSE 8.1 mph - N/A   Clear
7:53 AM 71.1 °F - 52.0 °F 51% 29.84 in 10.0 mi SSE 10.4 mph - N/A   Clear
8:53 AM 75.9 °F - 53.1 °F 45% 29.85 in 10.0 mi SSE 6.9 mph - N/A   Clear
9:53 AM 78.1 °F - 54.0 °F 43% 29.82 in 10.0 mi SE 10.4 mph - N/A   Clear
10:53 AM 84.0 °F 82.9 °F 55.0 °F 37% 29.81 in 10.0 mi SSE 8.1 mph - N/A   Clear
11:53 AM 87.1 °F 85.7 °F 55.9 °F 35% 29.79 in 10.0 mi SSE 6.9 mph - N/A   Clear
12:53 PM 90.0 °F 87.9 °F 55.0 °F 30% 29.78 in 10.0 mi SE 5.8 mph - N/A   Clear
1:53 PM 93.0 °F 90.8 °F 54.0 °F 27% 29.77 in 10.0 mi SE 11.5 mph - N/A   Clear
2:53 PM 93.0 °F 90.8 °F 54.0 °F 27% 29.76 in 10.0 mi Calm Calm - N/A   Clear
3:53 PM 95.0 °F 92.5 °F 53.1 °F 24% 29.75 in 10.0 mi Calm Calm - N/A   Clear
4:53 PM 95.0 °F 92.5 °F 53.1 °F 24% 29.73 in 10.0 mi Calm Calm - N/A   Clear
5:53 PM 95.0 °F 93.7 °F 57.0 °F 28% 29.71 in 10.0 mi NW 4.6 mph - N/A   Clear
6:53 PM 95.0 °F 93.4 °F 55.9 °F 27% 29.70 in 10.0 mi NNW 4.6 mph - N/A   Clear
7:53 PM 91.9 °F 90.6 °F 57.0 °F 31% 29.70 in 10.0 mi NNW 12.7 mph - N/A   Clear
8:53 PM 88.0 °F 86.7 °F 57.0 °F 35% 29.71 in 10.0 mi NNW 12.7 mph - N/A   Clear
9:53 PM 84.9 °F 86.1 °F 64.0 °F 49% 29.73 in 10.0 mi North 12.7 mph 20.7 mph N/A   Clear
10:53 PM 82.0 °F 83.8 °F 64.9 °F 56% 29.73 in 10.0 mi North 9.2 mph - N/A   Clear
11:53 PM 77.0 °F - 66.0 °F 69% 29.74 in 10.0 mi NNE 3.5 mph - N/A   Clear